Flag for Venezuela Weather past 2 weeks in Barquisimeto, Venezuela

Now
73 °F

Passing clouds.


Feels Like: 73 °F
Forecast: 71 / 88 °F
Wind: 7 mph from Southeast

Location: Barquisimeto Airport

Current Time: Jun 2, 2015 at 1:27:17 AM

Latest Report: Jun 1, 2015 at 10:30 PM


Visibility: N/A

Pressure: 30.01 "Hg

Humidity: 83%

Dew point: 68 °F

Location of BarquisimetoLocation

Historic Weather in Barquisimeto — Graph

°F

Barquisimeto temperature yesterday

Maximum temperature yesterday: 84 °F (at 3:30 PM)
Minimum temperature yesterday: 70 °F (at 1:30 AM)
Average temperature yesterday: 77 °F

Past Weeks' High & Low Weather Summary

 TemperatureHumidityPressure
High93 °F (May 21, 3:30 PM)94% (May 24, 5:30 AM)30.09 "Hg (May 24, 5:30 AM)
Low68 °F (May 27, 4:30 AM)34% (May 21, 3:30 PM)29.89 "Hg (May 21, 4:30 PM)
Average78 °F70%30.01 "Hg
* Reported May 17 10:30 PM — Jun 1 10:30 PM, Barquisimeto, Weather by CustomWeather, © 2015

Note: Actual official high and low records may vary slightly from our data, if they occured in-between our weather recording intervals... More about our weather records

Advertising

Barquisimeto weather history for previous 24 hours

 ConditionsComfort  
Time TempWeatherWind HumidityBarometerVisibility
10:30 PM
Mon, Jun 1
73 °FPassing clouds.7 mph83%30.01 "HgN/A
9:30 PM73 °FPassing clouds.3 mph78%30.01 "HgN/A
8:30 PM73 °FPassing clouds.9 mph74%30.01 "HgN/A
7:30 PM75 °FPassing clouds.16 mph69%29.98 "HgN/A
6:30 PM82 °FPassing clouds.7 mph58%29.95 "HgN/A
5:30 PM82 °FPassing clouds.15 mph55%29.95 "HgN/A
4:30 PM84 °FPassing clouds.12 mph51%29.92 "HgN/A
3:30 PM84 °FPassing clouds.13 mph55%29.95 "HgN/A
2:30 PM82 °FScattered clouds.13 mph58%29.98 "HgN/A
1:30 PM81 °FPartly sunny.9 mph66%30.01 "HgN/A
12:30 PM79 °FScattered clouds.13 mph70%30.04 "HgN/A
11:30 AM77 °FScattered clouds.9 mph79%30.07 "HgN/A
10:30 AM79 °FDrizzle. Partly sunny.16 mph79%30.07 "Hg4 mi
9:30 AM77 °FPartly sunny.9 mph79%30.07 "HgN/A
8:30 AM75 °FScattered showers. Partly sunny.12 mph83%30.07 "Hg6 mi
7:30 AM73 °FFog.9 mph89%30.04 "Hg4 mi
6:30 AM72 °FFog.8 mph94%30.04 "Hg1 mi
5:30 AM70 °FOvercast.5 mph94%30.01 "HgN/A
1:30 AM70 °FOvercast.5 mph94%30.04 "HgN/A
Weather by CustomWeather, © 2015

See weather overviewHow to use our weather pages